Temp
1 0 -0 0 0 1 0 -0 -0 -1 -1 -1 -1 -0 1 0 -0 -1 1 2 3 3 5 8 11 10 10 11 9 9 11 9 6 6 6 6 5 9 9 10 9 9 7 4 2 3 9 12 12 12 10 12 13 12
2 2 1 1 1 -0 -0 -1 -1 -1 -1 -1 -1 -1 -0 -1 -1 -1 0 1 2 2 4 5 9 10 10 11 11 12 12 10 11 7 5 5 6 4 7 8 10 11 9 8 8 8 10 12 13 14 15 14 12 13
0 0 -0 -0 -0 -1 -1 -1 -2 -1 -1 -1 -1 -1 -1 -1 -1 -0 0 2 1 1 4 6 9 10 10 11 12 12 11 12 12 11 7 6 8 6 8 7 10 11 9 8 9 10 10 10 12 13 13 13 12 12
-1 -1 -1 -1 -1 -1 -2 -2 -1 -1 -1 -1 -1 -0 0 -0 1 0 1 1 1 2 4 8 9 10 10 11 13 13 14 13 12 11 5 4 6 9 7 10 9 9 9 8 7 7 8 9 10 12 11 11 11 10
-1 -1 -1 -2 -2 -1 -1 -1 -1 -1 -1 -1 -0 0 0 1 1 1 1 2 2 2 3 5 8 8 10 12 13 13 14 13 11 7 3 6 7 7 5 7 8 10 9 8 8 8 9 9 9 10 10 10 10 10
-1 -1 -2 -1 -1 -1 -1 -1 -1 -1 -1 -0 -1 -1 1 1 1 1 1 1 2 3 2 3 7 7 9 12 13 13 13 12 11 9 5 7 8 7 4 5 10 11 11 13 11 10 10 10 8 8 9 9 8 9
-1 -1 -1 -1 -1 -1 -1 -1 -1 -0 -1 -0 -0 0 0 1 1 2 2 3 2 2 2 2 4 7 7 8 8 8 10 9 9 7 6 6 6 6 1 4 8 8 10 12 12 10 5 7 6 7 8 7 6 5
-1 -0 -0 -1 -1 -1 -1 -1 -1 -1 -0 -1 -0 -0 1 1 2 2 4 5 4 3 3 2 4 6 7 7 6 7 7 7 7 6 6 4 6 4 6 7 7 6 7 7 8 10 10 7 6 5 5 5 4 3
0 1 1 0 0 0 -0 -0 0 0 0 1 1 1 1 0 1 3 4 5 5 3 3 2 4 5 6 5 5 5 6 3 5 2 2 5 3 6 7 8 6 5 7 5 7 7 5 6 4 3 3 3 3 1
0 1 1 1 1 1 1 1 1 1 1 1 1 2 1 1 4 3 2 4 4 4 5 2 4 5 4 4 2 3 3 3 4 3 5 1 3 4 6 7 7 5 6 6 3 0 2 1 2 1 2 2 2 1
1 1 1 1 1 1 1 1 1 1 0 0 1 1 2 2 3 3 1 0 1 2 3 4 4 4 4 3 2 2 2 1 5 5 5 4 4 3 5 6 6 7 7 6 7 5 4 4 2 2 1 1 0 0
-0 -0 1 1 1 1 2 2 3 2 0 2 2 3 3 3 2 2 1 0 1 3 2 3 3 4 3 4 2 1 2 2 5 3 4 5 3 4 4 4 5 5 5 5 6 5 3 2 2 1 1 0 -0 -1
-1 0 0 0 0 0 0 0 0 0 -0 2 4 4 4 1 3 4 4 2 2 1 2 3 2 3 3 4 1 2 3 3 2 4 5 4 3 2 3 3 3 3 4 4 3 3 2 1 1 1 -0 -1 -1 -1
-0 -1 -0 -0 -1 -0 1 0 -0 -1 -0 3 2 2 2 3 2 1 2 2 1 2 2 2 1 1 2 1 1 3 2 2 2 1 1 1 2 1 2 3 3 2 2 3 2 -0 1 1 -0 -1 -1 -1 -1 -2
1 1 0 1 0 -0 0 -1 -1 -0 1 0 1 1 0 -1 -0 0 0 1 1 2 3 1 1 3 1 2 0 2 3 4 2 0 1 1 1 0 0 1 2 1 1 -0 -0 0 -0 -1 -3 -4 -3 -3 -2 -2
3 3 2 1 1 1 0 -0 -0 -0 0 -0 -1 0 0 0 0 0 1 1 2 3 3 3 1 3 2 2 2 1 2 2 1 0 1 1 1 1 1 0 -0 -0 -1 -1 -1 -2 -3 -3 -2 -2 -3 -3 -4 -4
4 3 3 3 2 2 1 0 1 -0 -1 -1 -2 -2 -1 -1 -1 -1 -0 1 2 2 1 -2 2 2 1 2 2 0 0 -1 -1 -0 -0 0 0 -1 -1 -1 -2 -2 -2 -2 -3 -3 -3 -3 -3 -3 -4 -5 -5 -5
3 3 3 4 3 4 3 1 0 -1 -2 -2 -2 -2 -3 -3 -2 -2 -1 1 2 2 1 1 1 0 0 1 0 -1 -2 -2 -2 -2 -2 -1 -1 -2 -2 -2 -3 -3 -3 -4 -3 -4 -5 -6 -6 -5 -6 -6 -6 -7
4 4 4 4 5 4 1 -0 -1 -2 -2 -2 -2 -2 -3 -4 -4 -3 -2 -1 -1 -0 -1 -2 -4 -3 -3 -2 -2 -2 -2 -3 -3 -3 -3 -3 -3 -2 -3 -3 -4 -4 -4 -5 -6 -6 -6 -7 -7 -7 -7 -8 -8 -9
3 4 4 4 4 2 -1 -1 -1 -1 -2 -2 -4 -4 -4 -5 -5 -5 -4 -3 -3 -4 -4 -4 -5 -5 -4 -4 -3 -3 -3 -3 -3 -4 -4 -3 -3 -3 -3 -4 -4 -5 -5 -6 -7 -7 -8 -8 -8 -9 -10 -9 -9 -10
4 4 4 6 2 0 -2 -2 -2 -2 -2 -2 -3 -3 -5 -5 -6 -6 -5 -4 -4 -5 -6 -7 -8 -7 -5 -4 -3 -3 -3 -3 -3 -4 -5 -5 -5 -4 -5 -5 -5 -6 -6 -7 -8 -9 -9 -9 -10 -10 -11 -10 -10 -11
4 4 3 2 1 -1 -2 -2 -2 -2 -2 -2 -2 -2 -3 -4 -5 -6 -7 -8 -9 -9 -8 -8 -8 -8 -6 -6 -5 -4 -4 -4 -4 -4 -5 -5 -6 -6 -6 -7 -7 -7 -8 -9 -9 -9 -10 -11 -12 -12 -11 -12 -11 -12
4 2 0 0 -0 -1 -3 -2 -2 -2 -2 -2 -3 -3 -3 -4 -6 -6 -8 -9 -11 -10 -9 -9 -8 -8 -7 -7 -6 -5 -5 -5 -5 -6 -6 -6 -7 -8 -8 -8 -9 -9 -10 -11 -11 -11 -12 -12 -12 -13 -13 -13 -13 -14
2 -1 -2 -2 -2 -6 -2 -3 -2 -2 -3 -3 -3 -4 -3 -5 -7 -8 -9 -11 -12 -11 -10 -9 -8 -8 -7 -7 -8 -8 -8 -7 -7 -8 -8 -8 -8 -10 -10 -10 -11 -11 -12 -12 -12 -12 -13 -13 -13 -13 -13 -14 -15 -15
-2 -5 -3 -8 -3 -6 -8 -7 -5 -4 -4 -4 -4 -4 -5 -6 -7 -9 -10 -12 -12 -12 -11 -10 -9 -10 -10 -11 -10 -10 -9 -9 -9 -9 -11 -11 -11 -11 -11 -12 -12 -12 -13 -13 -13 -13 -13 -14 -14 -15 -15 -16 -16 -17
-9 -5 -6 -6 -6 -6 -8 -9 -7 -7 -7 -5 -5 -6 -8 -9 -10 -11 -11 -13 -13 -13 -12 -12 -11 -11 -11 -11 -11 -11 -12 -11 -10 -10 -12 -12 -12 -12 -12 -13 -13 -13 -13 -14 -14 -14 -15 -15 -16 -16 -17 -17 -18 -18
-7 -7 -5 -6 -5 -5 -8 -7 -7 -10 -10 -9 -9 -11 -12 -13 -12 -11 -13 -13 -14 -13 -13 -13 -12 -12 -13 -13 -13 -12 -12 -12 -11 -12 -13 -13 -13 -13 -13 -13 -14 -14 -15 -15 -15 -16 -16 -17 -17 -17 -18 -19 -19 -20
-5 -6 -9 -8 -8 -8 -12 -14 -12 -11 -11 -10 -12 -17 -17 -17 -13 -14 -14 -14 -14 -13 -13 -13 -13 -13 -13 -13 -13 -13 -13 -14 -14 -13 -13 -13 -13 -13 -14 -15 -15 -16 -16 -17 -17 -17 -18 -18 -19 -19 -19 -20 -21 -21
-6 -6 -6 -12 -10 -10 -11 -12 -13 -13 -13 -12 -18 -18 -15 -16 -15 -14 -14 -14 -14 -14 -14 -14 -14 -14 -14 -14 -13 -13 -13 -13 -14 -13 -13 -14 -15 -15 -15 -16 -16 -17 -17 -17 -18 -19 -19 -20 -20 -21 -21 -21 -21 -22
-6 -6 -8 -10 -15 -13 -13 -14 -16 -15 -14 -15 -16 -16 -16 -16 -15 -15 -14 -14 -14 -14 -14 -15 -15 -15 -14 -14 -14 -14 -14 -14 -14 -14 -15 -15 -16 -16 -16 -16 -17 -17 -18 -18 -18 -19 -19 -19 -20 -20 -21 -21 -22 -22
-6 -6 -8 -10 -12 -14 -14 -14 -15 -15 -15 -16 -16 -17 -17 -17 -17 -17 -16 -16 -16 -16 -16 -15 -15 -15 -15 -14 -14 -14 -15 -15 -15 -16 -16 -17 -17 -17 -17 -18 -18 -19 -19 -19 -19 -19 -20 -20 -20 -21 -21 -22 -22 -23
-7 -7 -8 -13 -11 -12 -12 -12 -13 -14 -14 -15 -15 -15 -15 -16 -18 -18 -18 -18 -17 -17 -16 -16 -16 -15 -15 -15 -15 -16 -16 -16 -16 -17 -17 -17 -18 -18 -19 -19 -19 -19 -20 -20 -20 -21 -21 -21 -22 -22 -22 -22 -22 -23
-8 -8 -8 -9 -11 -11 -11 -10 -11 -12 -13 -13 -14 -15 -16 -17 -18 -19 -19 -18 -17 -17 -16 -16 -16 -16 -16 -16 -16 -17 -17 -17 -17 -18 -18 -19 -19 -19 -19 -19 -20 -20 -20 -21 -21 -21 -22 -22 -22 -22 -22 -23 -23 -23
Height
1121 1132 1146 1161 1175 1187 1201 1223 1242 1259 1276 1290 1303 1316 1328 1340 1350 1360 1369 1377 1382 1384 1378 1380 1385 1388 1395 1399 1402 1407 1421 1420 1427 1436 1442 1442 1450 1438 1441 1439 1448 1453 1469 1483 1493 1497 1473 1441 1445 1452 1447 1444 1448 1452
1136 1138 1150 1164 1176 1191 1211 1229 1247 1263 1278 1291 1304 1315 1327 1340 1349 1359 1369 1375 1381 1384 1379 1378 1378 1381 1383 1389 1397 1401 1400 1404 1410 1425 1431 1433 1439 1443 1443 1449 1438 1445 1441 1454 1457 1455 1439 1438 1438 1437 1438 1441 1448 1452
1165 1167 1173 1182 1195 1210 1225 1240 1255 1269 1282 1294 1305 1316 1329 1338 1347 1355 1366 1373 1381 1384 1375 1375 1375 1380 1381 1384 1391 1396 1400 1399 1400 1405 1413 1421 1426 1429 1437 1439 1432 1431 1430 1438 1442 1438 1437 1437 1437 1437 1438 1440 1445 1450
1192 1195 1200 1208 1217 1227 1239 1252 1264 1275 1286 1296 1307 1317 1328 1338 1348 1358 1364 1368 1380 1382 1381 1372 1370 1375 1377 1380 1385 1391 1395 1397 1400 1403 1408 1417 1423 1417 1426 1420 1435 1426 1426 1433 1440 1438 1437 1437 1437 1437 1439 1442 1445 1449
1213 1216 1221 1227 1234 1243 1253 1262 1271 1280 1290 1300 1310 1318 1324 1334 1348 1358 1364 1374 1379 1387 1382 1376 1372 1373 1372 1374 1380 1387 1391 1392 1395 1404 1409 1413 1411 1416 1418 1420 1420 1419 1417 1426 1428 1420 1422 1429 1435 1438 1439 1441 1445 1447
1228 1231 1235 1241 1247 1254 1261 1269 1276 1284 1293 1302 1312 1319 1329 1338 1342 1354 1369 1375 1380 1384 1389 1382 1373 1370 1368 1369 1375 1380 1386 1390 1393 1397 1409 1412 1411 1414 1422 1423 1406 1405 1407 1406 1408 1415 1419 1424 1432 1437 1439 1442 1445 1447
1239 1242 1246 1251 1257 1263 1269 1274 1279 1284 1296 1306 1315 1323 1332 1341 1349 1358 1365 1366 1373 1385 1387 1378 1372 1370 1369 1369 1375 1381 1384 1388 1392 1399 1404 1410 1413 1411 1421 1420 1406 1407 1403 1405 1407 1412 1425 1427 1430 1436 1439 1442 1446 1448
1253 1254 1258 1262 1266 1271 1276 1282 1287 1294 1303 1311 1320 1330 1340 1350 1360 1365 1364 1362 1371 1386 1385 1381 1374 1372 1371 1372 1378 1381 1384 1389 1396 1399 1406 1411 1411 1411 1412 1405 1408 1410 1405 1407 1410 1410 1414 1421 1429 1435 1440 1443 1446 1450
1264 1266 1270 1273 1278 1282 1287 1293 1299 1306 1313 1321 1329 1339 1349 1359 1364 1363 1364 1369 1377 1385 1381 1380 1375 1374 1372 1374 1379 1383 1384 1397 1398 1400 1406 1410 1413 1410 1401 1401 1411 1411 1405 1407 1412 1417 1420 1423 1430 1436 1441 1445 1446 1452
1273 1276 1279 1282 1286 1291 1296 1302 1308 1314 1320 1328 1336 1344 1352 1354 1361 1361 1372 1373 1376 1377 1378 1374 1370 1373 1371 1369 1380 1383 1387 1398 1401 1402 1402 1409 1404 1399 1398 1400 1406 1410 1406 1408 1410 1423 1421 1428 1433 1438 1443 1446 1449 1453
1279 1283 1286 1288 1292 1297 1302 1307 1312 1318 1324 1331 1337 1341 1348 1352 1361 1367 1370 1372 1372 1373 1371 1366 1370 1366 1365 1371 1379 1384 1389 1395 1396 1398 1400 1401 1398 1395 1395 1398 1403 1409 1409 1412 1415 1418 1420 1423 1430 1436 1444 1449 1452 1456
1282 1287 1291 1294 1298 1302 1306 1309 1311 1314 1321 1327 1330 1339 1348 1353 1362 1368 1369 1369 1367 1364 1364 1369 1369 1371 1371 1372 1378 1388 1392 1396 1393 1396 1399 1398 1393 1392 1395 1397 1401 1405 1410 1414 1417 1420 1424 1429 1433 1439 1444 1449 1453 1457
1286 1289 1293 1301 1306 1309 1310 1314 1318 1322 1325 1329 1336 1340 1344 1352 1357 1358 1358 1361 1362 1362 1364 1364 1371 1374 1377 1379 1383 1387 1393 1398 1396 1397 1393 1392 1392 1394 1396 1399 1403 1407 1411 1414 1419 1423 1425 1432 1438 1441 1445 1450 1454 1459
1287 1296 1301 1303 1312 1314 1310 1317 1324 1329 1331 1328 1332 1337 1344 1348 1352 1353 1355 1356 1358 1358 1360 1365 1370 1373 1377 1381 1387 1391 1399 1397 1403 1405 1398 1392 1394 1396 1399 1402 1404 1410 1413 1417 1420 1425 1430 1434 1438 1444 1449 1454 1457 1460
1294 1299 1302 1307 1314 1316 1314 1322 1329 1334 1334 1334 1337 1348 1350 1351 1354 1356 1355 1356 1358 1361 1362 1365 1369 1373 1379 1384 1390 1394 1395 1393 1398 1400 1394 1393 1396 1399 1402 1406 1408 1412 1416 1421 1425 1429 1433 1437 1442 1447 1452 1456 1460 1462
1302 1304 1308 1312 1318 1320 1324 1331 1336 1338 1336 1341 1351 1354 1358 1359 1359 1358 1358 1359 1360 1361 1362 1365 1373 1379 1387 1388 1390 1395 1392 1394 1398 1396 1396 1397 1400 1403 1406 1411 1413 1416 1420 1424 1429 1432 1437 1442 1446 1450 1455 1459 1461 1464
1308 1309 1313 1316 1320 1326 1332 1336 1340 1343 1348 1355 1360 1361 1361 1362 1364 1364 1363 1363 1364 1367 1371 1373 1376 1383 1387 1390 1395 1398 1399 1400 1398 1398 1400 1402 1403 1406 1410 1413 1417 1421 1425 1430 1434 1438 1443 1447 1451 1454 1457 1460 1462 1464
1313 1315 1316 1319 1322 1325 1328 1332 1338 1348 1357 1362 1364 1366 1365 1365 1366 1367 1367 1367 1369 1371 1373 1378 1382 1389 1394 1394 1400 1403 1403 1403 1402 1402 1404 1406 1408 1412 1415 1419 1424 1429 1432 1436 1440 1444 1447 1451 1454 1457 1459 1461 1463 1464
1319 1320 1321 1322 1322 1324 1331 1340 1345 1358 1368 1369 1370 1370 1370 1374 1376 1374 1373 1372 1372 1373 1377 1387 1396 1403 1406 1406 1405 1406 1406 1406 1407 1408 1410 1413 1415 1418 1423 1427 1431 1435 1438 1441 1444 1447 1450 1454 1457 1459 1461 1462 1463 1464
1323 1323 1324 1324 1325 1329 1342 1352 1355 1362 1372 1378 1378 1378 1380 1383 1381 1379 1376 1375 1375 1380 1394 1406 1414 1415 1412 1410 1408 1408 1409 1410 1410 1413 1417 1421 1424 1426 1429 1432 1436 1439 1442 1445 1448 1451 1453 1456 1458 1459 1461 1462 1463 1463
1328 1327 1328 1328 1331 1339 1351 1357 1361 1368 1374 1379 1381 1382 1388 1389 1386 1385 1386 1387 1388 1406 1417 1423 1422 1419 1415 1413 1413 1413 1414 1415 1416 1418 1422 1426 1430 1432 1435 1438 1440 1443 1445 1449 1451 1454 1456 1458 1459 1460 1461 1462 1461 1461
1332 1331 1331 1333 1341 1352 1361 1364 1367 1371 1375 1380 1381 1384 1390 1395 1397 1401 1405 1405 1420 1428 1429 1429 1426 1423 1420 1418 1419 1419 1421 1421 1423 1426 1429 1432 1435 1438 1441 1444 1446 1448 1450 1453 1455 1456 1458 1459 1460 1461 1461 1460 1460 1459
1335 1335 1339 1345 1351 1361 1373 1371 1372 1375 1378 1384 1387 1390 1396 1403 1411 1414 1423 1433 1437 1437 1436 1434 1432 1430 1427 1428 1427 1427 1429 1430 1431 1434 1437 1439 1441 1444 1446 1449 1451 1452 1454 1456 1457 1458 1459 1459 1459 1459 1459 1458 1457 1456
1339 1344 1353 1359 1364 1373 1375 1377 1379 1381 1385 1389 1393 1398 1403 1412 1419 1427 1439 1446 1447 1442 1439 1438 1437 1436 1435 1434 1434 1436 1438 1439 1439 1442 1445 1446 1447 1450 1452 1454 1455 1456 1458 1459 1459 1459 1459 1459 1459 1458 1457 1455 1453 1452
1350 1370 1372 1377 1376 1378 1384 1386 1387 1387 1393 1395 1398 1403 1409 1415 1425 1437 1446 1452 1450 1447 1445 1444 1442 1442 1441 1443 1444 1444 1446 1446 1446 1447 1451 1453 1453 1455 1456 1457 1458 1459 1460 1460 1460 1460 1459 1458 1456 1455 1453 1451 1449 1448
1376 1385 1386 1386 1387 1388 1391 1397 1396 1399 1400 1401 1405 1410 1416 1425 1437 1448 1454 1455 1454 1452 1451 1450 1449 1448 1448 1449 1450 1451 1452 1452 1453 1451 1455 1458 1458 1459 1460 1460 1460 1460 1461 1460 1459 1458 1457 1455 1454 1452 1450 1448 1445 1443
1392 1395 1394 1394 1392 1392 1397 1400 1402 1405 1410 1414 1415 1420 1426 1442 1451 1456 1458 1457 1456 1456 1455 1455 1454 1454 1454 1455 1455 1456 1457 1458 1458 1458 1459 1460 1461 1461 1462 1462 1461 1461 1460 1459 1458 1456 1454 1452 1450 1448 1447 1445 1443 1440
1398 1401 1403 1402 1401 1403 1407 1412 1416 1420 1420 1421 1424 1437 1445 1453 1456 1459 1460 1460 1459 1459 1458 1458 1459 1459 1460 1460 1460 1461 1461 1462 1462 1463 1464 1463 1463 1462 1462 1461 1461 1460 1458 1457 1455 1453 1451 1449 1447 1445 1443 1441 1439 1437
1407 1406 1405 1409 1410 1415 1422 1425 1428 1428 1427 1426 1432 1442 1449 1453 1456 1459 1461 1462 1462 1462 1462 1462 1462 1463 1463 1464 1464 1464 1464 1465 1465 1465 1464 1464 1464 1463 1461 1460 1459 1457 1456 1455 1453 1451 1449 1446 1444 1442 1440 1438 1436 1433
1412 1410 1413 1420 1425 1432 1436 1435 1435 1432 1428 1428 1434 1444 1450 1457 1460 1463 1464 1464 1465 1465 1465 1465 1466 1467 1467 1468 1468 1467 1467 1466 1466 1465 1464 1463 1462 1461 1459 1458 1456 1455 1453 1451 1449 1448 1446 1443 1441 1439 1437 1434 1432 1430
1419 1420 1424 1430 1438 1443 1442 1442 1440 1439 1439 1441 1447 1448 1454 1460 1463 1466 1466 1467 1467 1467 1468 1468 1468 1469 1469 1469 1469 1468 1467 1467 1465 1464 1463 1462 1461 1460 1458 1457 1455 1453 1450 1448 1445 1443 1441 1438 1436 1434 1432 1430 1428 1426
1425 1427 1430 1437 1443 1445 1444 1446 1449 1452 1454 1455 1456 1458 1460 1462 1466 1469 1469 1469 1469 1469 1469 1470 1470 1470 1470 1469 1468 1467 1466 1466 1465 1464 1463 1461 1460 1458 1456 1454 1452 1449 1447 1445 1442 1440 1438 1435 1433 1431 1429 1427 1424 1422
1432 1432 1434 1437 1441 1443 1445 1447 1450 1455 1457 1459 1460 1461 1462 1465 1468 1470 1470 1470 1470 1470 1470 1470 1470 1470 1470 1469 1468 1467 1466 1465 1464 1462 1460 1459 1457 1455 1453 1451 1449 1446 1444 1442 1440 1437 1435 1433 1431 1428 1426 1424 1421 1419
Wind_Speed
15 34 37 37 43 56 72 67 61 57 54 53 48 47 46 47 44 50 33 23 21 5 7 12 23 19 27 29 10 10 9 5 3 4 4 4 3 5 4 6 8 7 7 3 3 3 6 8 5 9 7 10 15 14
32 30 36 40 66 66 64 62 56 52 51 47 47 44 45 43 41 40 29 35 22 8 7 5 22 24 28 39 27 22 7 9 11 4 1 3 2 3 2 3 1 3 7 6 9 6 4 8 5 9 21 24 17 19
40 43 51 54 56 57 52 50 49 48 47 46 47 43 41 36 30 42 33 40 24 6 11 7 12 21 15 24 41 18 6 7 11 5 5 2 3 4 3 4 3 3 4 4 4 4 3 6 10 22 20 23 22 19
37 39 41 42 44 44 44 44 43 44 44 43 38 35 33 33 42 34 31 35 39 1 4 4 6 15 14 18 25 43 22 13 12 8 4 3 3 7 5 5 3 4 10 6 1 1 6 8 14 24 22 22 22 22
33 35 36 36 37 37 38 40 39 38 39 36 35 33 34 32 46 34 25 31 46 17 4 8 1 3 13 25 31 36 29 21 14 4 3 2 2 4 2 3 4 8 7 6 6 19 9 15 22 22 23 22 20 20
29 30 30 31 32 36 33 33 28 34 32 33 34 31 42 43 38 32 8 21 26 26 5 3 2 4 4 19 28 31 31 19 9 8 2 3 2 3 3 4 3 12 12 12 8 28 12 27 25 22 21 19 18 19
29 31 30 28 27 26 27 26 26 35 38 37 37 35 42 37 34 19 6 12 40 34 5 3 3 2 6 14 10 12 16 9 6 6 3 3 1 3 2 3 1 6 10 12 20 31 18 28 18 23 21 21 20 22
30 32 32 32 32 33 34 37 38 41 41 37 37 35 32 31 29 10 4 8 48 29 5 2 3 2 3 5 4 4 6 6 5 4 4 2 2 3 1 2 3 9 19 24 26 12 26 27 29 26 25 28 30 31
26 28 29 29 29 30 32 34 35 36 37 38 35 33 27 21 19 12 6 18 30 12 4 3 2 2 2 5 5 4 4 3 4 2 2 6 3 5 7 8 18 21 8 21 16 16 28 33 32 30 30 30 32 32
23 25 22 21 24 26 32 34 34 37 36 41 35 15 7 14 29 25 10 7 9 10 4 3 1 2 3 3 3 4 4 3 3 2 8 2 3 2 6 18 27 21 20 28 32 21 32 30 31 32 31 30 29 30
18 16 17 20 24 29 32 34 36 36 39 30 11 8 24 32 23 5 0 1 3 2 6 1 4 1 7 3 3 2 2 1 3 3 4 1 3 3 9 20 24 18 17 21 14 22 27 33 35 34 30 27 28 27
17 20 21 24 29 33 33 35 39 42 25 28 11 30 19 7 6 4 2 2 3 5 2 3 4 4 2 3 4 3 3 2 3 5 3 3 3 8 14 22 23 20 22 14 14 24 25 28 31 32 31 29 26 23
27 25 26 27 28 29 31 32 34 25 25 7 7 5 4 2 4 6 5 3 3 4 8 6 3 4 4 4 5 3 3 1 1 1 3 3 6 15 20 23 22 21 20 23 25 23 26 31 29 28 31 27 24 22
22 24 23 27 29 25 30 32 30 24 10 2 4 5 3 2 2 1 2 2 2 6 17 16 5 3 3 3 1 4 0 2 2 1 5 1 12 18 21 23 25 24 24 24 24 28 30 30 30 28 24 22 21 19
27 28 25 23 27 35 35 31 31 8 2 4 6 4 4 3 3 0 4 5 6 13 11 9 7 5 3 4 2 3 1 1 3 4 1 12 17 21 23 26 28 27 26 27 29 29 30 29 27 25 23 20 15 13
27 30 27 27 30 36 35 25 22 6 6 7 7 3 2 1 2 7 12 9 9 11 8 8 4 3 2 3 2 1 4 4 1 1 8 23 24 23 23 24 26 27 27 29 31 28 25 25 26 24 18 15 13 9
26 19 20 24 25 27 29 12 7 4 6 4 4 11 6 9 6 5 8 7 5 3 2 3 4 2 2 3 2 3 2 2 3 12 16 22 23 23 23 24 24 26 28 27 24 24 25 23 18 15 18 15 11 8
23 17 21 23 21 18 14 6 6 7 7 11 4 8 17 16 9 13 8 6 3 3 3 3 3 4 3 2 2 1 5 10 14 17 18 19 21 22 23 25 25 23 23 24 24 22 20 17 15 14 12 10 8 5
14 10 10 12 8 5 6 8 8 5 8 5 12 13 15 14 21 15 14 18 18 12 7 6 5 3 3 3 3 7 10 14 20 24 24 21 22 24 24 23 23 25 23 21 21 20 17 14 12 10 8 6 5 5
11 9 8 6 7 7 6 6 6 8 4 6 13 19 10 9 16 24 26 25 22 10 8 5 4 8 7 7 7 13 19 23 27 28 25 23 22 20 20 20 21 19 18 18 17 16 15 13 10 7 5 6 6 7
13 14 13 14 23 13 7 6 7 6 7 7 15 13 10 24 28 22 22 19 18 8 5 11 15 19 18 16 16 17 19 20 21 25 25 23 20 20 20 19 18 17 16 16 14 12 8 6 5 4 3 6 7 8
14 13 15 14 9 7 8 10 6 5 5 7 10 8 6 8 12 19 19 18 10 12 11 15 20 22 24 25 23 21 20 22 23 23 23 21 21 20 18 15 13 14 13 11 9 7 5 3 1 2 5 8 10 11
7 10 10 11 7 6 4 8 5 5 3 3 4 3 4 6 7 8 7 9 10 19 15 17 20 23 26 24 25 25 23 23 24 21 19 19 19 17 16 15 12 11 11 9 5 3 1 2 4 6 9 11 12 13
10 8 9 8 10 2 4 5 5 4 5 3 3 3 4 5 6 7 4 5 15 19 20 16 17 21 23 26 28 25 23 20 21 21 17 15 16 16 13 12 10 9 8 5 3 2 4 6 8 10 12 14 14 14
8 11 7 7 9 6 5 4 4 3 4 4 3 4 4 6 3 3 3 6 16 18 17 16 18 21 24 23 22 20 17 15 16 19 19 15 14 13 12 10 8 7 5 4 5 7 8 10 12 13 15 16 15 15
7 10 6 7 5 4 2 3 4 3 3 3 4 5 5 3 4 4 3 7 10 13 14 14 15 18 20 18 18 17 17 14 12 16 18 12 11 9 8 6 5 5 6 8 9 10 11 12 13 13 13 13 14 16
6 6 7 10 4 4 6 9 8 6 5 5 3 3 3 5 4 3 4 6 9 10 11 13 14 17 19 19 18 17 13 11 12 16 14 10 9 8 7 6 6 7 9 10 12 12 13 14 14 15 15 15 16 16
7 9 5 12 11 14 4 4 5 4 3 6 5 5 4 3 2 3 6 9 9 9 11 12 13 13 13 14 15 14 14 13 11 9 8 8 8 8 8 9 9 11 12 14 15 16 16 16 17 18 18 18 17 16
7 9 5 10 8 9 11 5 5 7 8 3 4 3 4 5 11 16 10 7 7 8 12 14 16 12 12 11 10 9 8 7 6 6 7 8 8 9 10 11 12 13 14 14 15 16 16 16 18 19 18 18 19 19
15 9 7 8 5 5 10 10 12 13 12 13 15 27 27 23 17 12 9 7 6 8 9 9 9 5 8 7 8 6 6 7 7 8 9 10 10 12 13 14 14 15 16 17 17 17 17 18 18 18 18 18 17 16
6 9 8 8 7 17 22 23 26 26 29 32 30 29 21 19 20 16 13 11 9 6 4 5 5 7 7 6 6 7 7 9 10 11 11 11 12 13 13 14 15 16 16 17 18 18 18 18 18 18 18 17 17 17
8 7 6 4 4 14 8 10 14 15 12 12 12 13 7 5 5 4 6 5 3 2 5 5 4 4 5 8 9 10 10 11 11 11 11 12 13 13 14 16 16 17 17 18 18 17 17 17 17 17 17 17 17 17
10 14 10 5 4 5 5 6 5 5 4 3 3 5 5 4 4 3 4 4 4 4 4 3 2 3 6 8 9 10 10 11 12 12 13 14 15 16 17 18 18 17 17 16 17 16 16 16 16 16 16 17 18 18
Wind_Direction
161 177 182 185 187 180 173 177 182 182 178 183 186 188 192 198 200 205 196 189 200 275 266 196 182 179 199 207 192 151 160 218 95 134 168 193 147 212 117 166 172 160 144 178 84 73 276 194 111 166 199 143 162 167
113 142 167 169 156 157 166 171 172 171 176 177 180 183 188 193 197 203 199 205 206 271 241 285 204 191 212 210 196 179 196 162 175 124 197 118 143 76 163 201 135 192 181 177 179 208 233 188 223 186 161 158 160 157
119 127 131 139 149 155 156 158 163 169 171 174 179 185 185 190 205 204 199 206 203 280 307 266 219 211 217 210 204 194 214 184 169 161 154 161 136 125 151 240 125 231 151 143 112 217 229 207 186 168 171 162 160 166
102 112 120 128 136 143 148 155 162 165 171 177 179 181 186 184 196 182 198 197 206 267 271 282 216 205 217 213 205 210 223 196 163 153 112 151 157 193 193 133 220 223 141 138 69 4 103 182 182 169 164 160 157 163
109 116 122 129 135 142 150 155 160 165 173 175 177 178 183 178 191 175 172 193 207 209 333 283 273 221 220 204 201 206 210 188 157 116 81 203 116 126 37 53 204 197 170 161 213 186 158 180 173 168 161 158 164 172
112 119 129 135 141 146 154 160 168 172 175 174 171 176 167 171 169 166 147 192 190 203 313 302 313 342 237 190 194 200 203 192 161 115 163 123 102 134 140 203 255 197 201 193 173 170 176 166 169 168 163 158 159 166
115 120 129 137 141 146 152 160 165 160 162 161 162 170 164 164 168 157 185 204 189 199 255 306 326 188 140 121 116 118 142 130 111 119 91 89 223 96 109 185 2 222 186 173 164 155 131 159 165 166 165 158 158 152
103 106 107 111 117 117 117 120 122 128 138 139 142 142 149 160 166 182 158 173 181 197 276 277 267 324 141 83 77 94 97 84 69 110 121 126 138 56 296 341 153 165 140 141 155 178 179 164 157 155 156 151 145 142
112 117 116 115 121 127 130 132 133 133 135 134 136 134 133 154 174 191 120 156 192 202 204 210 171 264 152 111 107 82 98 79 68 91 196 171 185 209 215 212 199 177 165 150 137 140 151 154 153 155 158 155 151 147
122 123 121 125 130 132 137 136 134 133 135 138 138 129 154 175 167 140 101 172 173 190 254 243 33 234 229 102 102 105 65 140 167 208 135 115 232 289 217 205 196 189 167 158 132 131 148 151 158 157 160 158 156 153
153 138 129 133 138 140 143 140 141 140 144 144 159 176 139 136 129 140 64 121 196 165 212 175 216 139 35 93 120 53 134 92 127 200 162 175 280 225 179 176 183 179 168 170 192 172 170 170 164 163 158 156 153 152
158 154 150 145 147 146 152 156 160 159 164 171 134 129 127 117 101 148 218 215 209 192 133 181 113 91 52 63 83 39 99 81 155 137 118 217 256 172 164 163 164 167 168 160 166 162 162 167 169 163 157 155 155 154
173 170 165 156 160 160 168 171 171 160 170 172 138 113 130 102 130 169 193 222 165 183 184 136 105 124 127 94 78 86 74 153 162 107 219 228 150 154 149 154 155 160 159 154 152 159 168 166 162 162 156 155 155 153
165 172 172 181 176 171 182 179 183 194 208 349 79 62 45 106 59 172 162 121 129 145 128 122 104 92 87 63 105 89 238 115 91 236 235 166 145 145 155 160 159 153 153 156 161 166 160 159 156 156 155 154 158 156
134 146 153 159 168 180 193 193 187 170 325 77 45 48 25 17 26 38 87 93 83 135 125 112 76 82 45 87 61 118 109 147 205 238 233 130 137 149 148 155 157 159 161 159 159 157 150 151 151 149 151 151 155 162
126 137 141 154 159 171 177 184 192 218 25 52 50 87 53 107 26 48 76 53 69 88 69 55 83 80 57 121 110 164 132 202 260 358 129 146 153 153 154 156 156 158 159 153 150 150 146 148 152 148 149 161 164 164
144 124 149 162 161 168 161 159 153 91 73 63 44 41 73 70 60 55 59 35 56 51 77 92 72 84 106 75 79 17 29 340 337 110 139 153 150 148 152 151 150 149 147 146 143 142 148 149 150 161 167 163 166 167
97 113 120 129 125 112 92 73 88 70 64 44 67 29 59 59 44 38 35 52 54 76 52 61 78 55 45 61 49 52 53 87 113 127 135 142 143 143 145 141 141 143 140 140 143 145 151 157 163 164 165 165 174 193
93 92 120 150 166 89 60 43 48 85 64 65 52 63 69 62 57 71 79 84 85 84 85 49 54 38 13 9 34 83 106 106 99 104 116 130 139 141 140 138 137 141 143 149 154 158 158 159 168 168 177 191 216 243
96 107 97 113 101 69 70 51 64 81 66 83 66 59 66 41 49 51 59 61 61 58 49 42 22 353 350 27 109 126 125 126 126 112 111 119 127 131 135 142 147 152 152 153 157 162 167 172 177 183 183 214 242 261
98 99 97 97 70 70 68 42 59 84 98 96 97 79 75 51 45 43 39 50 55 38 62 25 21 44 79 94 108 127 129 133 122 123 123 118 126 132 137 142 149 154 156 158 161 160 169 167 164 170 225 261 277 282
74 87 70 59 69 67 56 33 83 87 73 83 68 80 99 59 44 43 43 43 55 23 36 44 60 67 81 81 92 104 113 118 119 120 123 127 122 122 123 127 139 136 139 141 149 153 153 143 105 291 293 296 296 297
62 53 53 38 77 65 40 28 49 37 74 61 48 60 50 61 49 39 65 37 36 29 53 65 77 83 86 90 96 97 100 106 103 104 109 112 113 113 117 116 118 123 122 115 117 113 75 354 325 314 306 300 298 299
57 54 37 38 40 72 66 37 37 57 62 54 59 70 81 87 76 72 71 46 15 46 54 66 82 85 86 82 77 80 84 92 98 97 96 104 106 102 104 105 106 104 95 89 70 9 334 318 309 301 300 302 305 303
62 17 30 2 25 47 36 29 14 54 62 43 64 61 64 66 71 66 59 19 26 42 54 67 77 81 83 83 82 81 82 85 93 99 91 88 95 101 99 94 89 81 64 17 343 324 314 310 307 306 306 306 306 305
68 27 37 9 6 54 16 50 39 43 58 55 55 73 67 67 67 62 59 20 35 43 53 68 83 90 85 84 88 86 84 86 96 101 98 94 91 84 77 65 46 26 0 351 344 336 329 325 321 318 319 320 319 315
49 14 17 19 29 57 64 54 49 56 50 30 23 45 63 67 70 76 63 67 79 74 80 84 89 90 91 88 87 88 91 91 89 90 92 88 79 69 53 35 18 2 347 340 337 334 331 329 326 326 326 326 327 324
51 42 38 7 50 39 71 43 35 29 20 16 64 41 91 115 87 86 105 100 100 99 95 92 88 88 95 94 91 89 87 79 76 72 63 47 33 17 8 3 355 348 342 338 337 336 332 329 327 327 325 323 323 320
33 11 59 26 49 48 36 36 27 8 350 33 97 88 88 74 104 132 134 125 99 86 88 90 85 82 87 92 97 89 78 69 48 25 14 12 360 352 347 343 338 333 329 329 328 327 325 320 320 322 322 319 319 317
22 41 86 43 53 47 30 46 64 62 78 98 100 109 99 93 100 113 118 116 109 100 95 89 92 97 96 89 78 70 53 33 18 10 6 358 353 347 342 338 335 332 329 326 323 321 317 315 314 314 314 316 318 316
54 58 62 59 76 100 96 90 87 87 92 98 110 102 104 105 94 82 75 62 59 83 114 110 111 98 81 66 47 34 18 11 9 6 0 352 344 340 335 331 328 328 328 327 327 327 328 325 324 323 324 324 322 319
45 67 109 94 125 142 96 74 72 84 85 86 92 100 89 90 80 79 57 58 55 113 129 122 125 90 46 21 15 10 1 356 355 351 347 343 341 338 334 332 334 334 333 331 331 331 328 327 326 327 328 328 327 327
69 77 87 94 119 173 182 125 99 110 99 95 80 84 84 81 103 127 117 88 84 104 107 93 53 10 353 350 347 346 344 345 346 343 340 337 333 333 333 332 332 332 331 330 330 331 329 327 329 331 333 332 331 331